Regional Weather Roundup
Issued by NWS

Home | Current Version | Previous Version | Graphics & Text | Print | Product List | Glossary On
Versions: 1 2 3 4 5 6 7 8 9 10 11 12 13 14 15 16 17 18 19 20 21 22 23 24 25 26 27 28 29 30 31 32 33 34 35 36 37 38 39 40 41 42 43 44 45 46 47 48 49 50
000
ASUS43 KLMK 171102
RWRKY
KENTUCKY REGIONAL WEATHER ROUNDUP
NATIONAL WEATHER SERVICE LOUISVILLE KY
700 AM EDT THU AUG 17 2017

NOTE "FAIR" INDICATES FEW OR NO CLOUDS BELOW 12,000 FEET
WITH NO SIGNIFICANT WEATHER AND/OR OBSTRUCTIONS TO VISIBILITY.

KYZ001>023-026-027-061>063-070>075-171200-
WESTERN AND SOUTH CENTRAL KENTUCKY

CITY           SKY/WX    TMP DP  RH WIND       PRES   REMARKS
PADUCAH        CLEAR     77  73  87 SW9       29.92R
HENDERSON      CLEAR     76  74  93 S9        29.92
OWENSBORO      PTCLDY    75  74  96 S5        29.94R FOG
HOPKINSVILLE   CLEAR     75  74  98 S8        29.97R
BOWLING GREEN  CLEAR     76  74  93 S8        29.98S
GLASGOW        PTCLDY    74  74 100 S6        30.00R
$$

KYZ024-025-028>034-038-045-046-053-171200-
NORTH CENTRAL KENTUCKY

CITY           SKY/WX    TMP DP  RH WIND       PRES   REMARKS
LOUISVILLE/SDF PTCLDY    78  74  87 S6        29.95R
LOUISVILLE/LOU CLEAR     76  75  97 S6        29.96R
FORT KNOX      CLEAR     73  73 100 S7        29.96R
$$

KYZ035>037-039>044-047>052-055>060-089>105-171200-
NORTHEAST KENTUCKY

CITY           SKY/WX    TMP DP  RH WIND       PRES   REMARKS
LEXINGTON      PTCLDY    75  71  87 S6        30.00R
COVINGTON      PTCLDY    74  73  97 S8        29.96R
FRANKFORT      CLEAR     74  71  91 S3        29.98R
$$

KYZ054-064>069-076>088-106>120-171200-
SOUTHEAST KENTUCKY

CITY           SKY/WX    TMP DP  RH WIND       PRES   REMARKS
JACKSON        CLEAR     71  70  96 CALM      30.05R
LONDON         CLEAR     72  70  93 S3        30.05R FOG
SOMERSET       NOT AVBL
MIDDLESBORO    CLOUDY    71  71 100 CALM      30.08R
MONTICELLO     MOSUNNY   72  71  97 NE6       30.06R
$$





USA.gov is the U.S. government's official web portal to all federal, state and local government web resources and services.